Flag for Canada Weather past 2 weeks in Clarington, Ontario, Canada

Now
55 °F

Passing clouds.


Feels Like: 51 °F
Forecast: 40 / 54 °F
Wind: 20 mph from West

Location: Peterborough Airport

Current Time: May 22, 2015 at 1:49:38 PM

Latest Report: May 22, 2015 at 1:00 PM


Visibility: 9 mi

Pressure: 30.04 "Hg

Humidity: 36%

Dew point: 28 °F

Location of ClaringtonLocation

Historic Weather in Clarington — Graph

°F

Clarington temperature yesterday

Maximum temperature yesterday: 64 °F (at 3:00 PM)
Minimum temperature yesterday: 43 °F (at 1:00 AM)
Average temperature yesterday: 53 °F

Past Weeks' High & Low Weather Summary

 TemperatureHumidityPressure
High84 °F (May 8, 3:00 PM)100% (May 8, 7:00 AM)30.49 "Hg (May 8, 7:00 AM)
Low32 °F (May 14, 5:00 AM)23% (May 20, 5:00 PM)29.72 "Hg (May 12, 4:00 AM)
Average59 °F71%30.05 "Hg
* Reported May 7 12:00 Noon — May 22 12:00 Noon, Clarington, Weather by CustomWeather, © 2015

Note: Actual official high and low records may vary slightly from our data, if they occured in-between our weather recording intervals... More about our weather records

Advertising

Clarington weather history for previous 24 hours

 ConditionsComfort  
Time TempWeatherWind HumidityBarometerVisibility
12:00 PM
Fri, May 22
55 °FBroken clouds.17 mph44%30.04 "Hg9 mi
11:00 AM54 °FBroken clouds.13 mph51%30.04 "Hg9 mi
10:00 AM52 °FSunny.8 mph50%30.02 "Hg9 mi
9:00 AM50 °FSunny.9 mph54%30.02 "Hg9 mi
8:00 AM48 °FSunny.12 mph62%30.00 "Hg9 mi
7:00 AM45 °FPassing clouds.5 mph76%29.97 "Hg9 mi
6:00 AM41 °FClear.3 mph81%29.94 "Hg9 mi
5:00 AM43 °FClear.7 mph76%29.91 "Hg9 mi
4:00 AM45 °FClear.9 mph71%29.88 "Hg9 mi
3:00 AM46 °FClear.8 mph66%29.85 "Hg9 mi
2:00 AM46 °FClear.6 mph71%29.83 "Hg9 mi
1:00 AM45 °FClear.3 mph81%29.84 "Hg9 mi
12:00 AM45 °FPassing clouds.No wind87%29.83 "Hg9 mi
11:00 PM
Thu, May 21
46 °FClear.5 mph82%29.83 "Hg9 mi
10:00 PM50 °FPartly cloudy.3 mph71%29.84 "Hg9 mi
9:00 PM54 °FMore clouds than sun.3 mph54%29.84 "Hg9 mi
8:00 PM57 °FMostly cloudy.9 mph48%29.83 "Hg9 mi
7:00 PM59 °FPartly sunny.7 mph42%29.83 "Hg9 mi
6:00 PM63 °FPartly sunny.6 mph37%29.82 "Hg9 mi
5:00 PM64 °FPartly sunny.13 mph34%29.82 "Hg9 mi
4:00 PM64 °FPassing clouds.6 mph30%29.84 "Hg9 mi
3:00 PM64 °FPassing clouds.8 mph30%29.85 "Hg9 mi
2:00 PM63 °FSunny.15 mph32%29.87 "Hg9 mi
1:00 PM63 °FSunny.14 mph32%29.89 "Hg9 mi
Weather by CustomWeather, © 2015

See weather overviewHow to use our weather pages